When you browse on this site, cookies collect data to enhance your experience and personalize the content and advertising you see.
Visit our Privacy Policy to learn more. By continuing to use the site, you agree to this use of cookies and data.

Météo par heure à Ugledar

Ce jour, 20 Septembre, Dimanche

Heure Température Précipitation Vent Pression Humidité
00:00 +10°C° 0 mm 2 m/s 748 mmHg 57%
01:00 +10°C° 0 mm 2 m/s 747 mmHg 60%
02:00 +10°C° 0 mm 2 m/s 747 mmHg 63%
03:00 +9°C° 0 mm 2 m/s 747 mmHg 64%
04:00 +9°C° 0 mm 2 m/s 747 mmHg 66%
05:00 +8°C° 0 mm 2 m/s 748 mmHg 67%
06:00 +11°C° 0 mm 3 m/s 748 mmHg 59%
07:00 +13°C° 0 mm 3 m/s 748 mmHg 51%
08:00 +15°C° 0 mm 4 m/s 748 mmHg 43%
09:00 +17°C° 0 mm 4 m/s 748 mmHg 37%
10:00 +19°C° 0 mm 4 m/s 748 mmHg 32%
11:00 +21°C° 0 mm 5 m/s 748 mmHg 27%
12:00 +21°C° 0 mm 5 m/s 748 mmHg 27%
13:00 +22°C° 0 mm 5 m/s 748 mmHg 28%
14:00 +22°C° 0 mm 5 m/s 748 mmHg 28%
15:00 +21°C° 0 mm 5 m/s 748 mmHg 29%
16:00 +20°C° 0 mm 4 m/s 748 mmHg 30%
17:00 +19°C° 0 mm 3 m/s 748 mmHg 31%
18:00 +17°C° 0 mm 3 m/s 749 mmHg 36%
19:00 +14°C° 0 mm 3 m/s 749 mmHg 40%
20:00 +13°C° 0 mm 3 m/s 750 mmHg 44%
21:00 +12°C° 0 mm 3 m/s 750 mmHg 47%
22:00 +11°C° 0 mm 3 m/s 750 mmHg 49%
23:00 +11°C° 0 mm 3 m/s 750 mmHg 52%

Demain, 21 Septembre, Lundi

Heure Température Précipitation Vent Pression Humidité
00:00 +10°C° 0 mm 2 m/s 751 mmHg 54%
01:00 +9°C° 0 mm 2 m/s 751 mmHg 56%
02:00 +9°C° 0 mm 2 m/s 751 mmHg 58%
03:00 +8°C° 0 mm 2 m/s 751 mmHg 59%
04:00 +8°C° 0 mm 2 m/s 751 mmHg 60%
05:00 +8°C° 0 mm 2 m/s 751 mmHg 61%
06:00 +10°C° 0 mm 2 m/s 751 mmHg 54%
07:00 +13°C° 0 mm 2 m/s 752 mmHg 47%
08:00 +15°C° 0 mm 2 m/s 752 mmHg 39%
09:00 +17°C° 0 mm 2 m/s 752 mmHg 35%
10:00 +18°C° 0 mm 2 m/s 752 mmHg 30%
11:00 +20°C° 0 mm 2 m/s 752 mmHg 25%
12:00 +21°C° 0 mm 2 m/s 751 mmHg 23%
13:00 +21°C° 0 mm 2 m/s 751 mmHg 20%
14:00 +23°C° 0 mm 2 m/s 751 mmHg 18%
15:00 +21°C° 0 mm 2 m/s 751 mmHg 20%
16:00 +20°C° 0 mm 2 m/s 750 mmHg 21%
17:00 +19°C° 0 mm 2 m/s 750 mmHg 22%
18:00 +17°C° 0 mm 2 m/s 750 mmHg 24%
19:00 +16°C° 0 mm 2 m/s 750 mmHg 26%
20:00 +14°C° 0 mm 2 m/s 751 mmHg 28%
21:00 +13°C° 0 mm 2 m/s 751 mmHg 29%
22:00 +13°C° 0 mm 2 m/s 751 mmHg 30%
23:00 +12°C° 0 mm 2 m/s 751 mmHg 31%

Après-demain, 22 Septembre, Mardi

Heure Température Précipitation Vent Pression Humidité
00:00 +12°C° 0 mm 2 m/s 751 mmHg 32%
01:00 +12°C° 0 mm 2 m/s 750 mmHg 33%
02:00 +11°C° 0 mm 1 m/s 750 mmHg 34%
03:00 +10°C° 0 mm 2 m/s 750 mmHg 35%
04:00 +9°C° 0 mm 2 m/s 750 mmHg 35%
05:00 +9°C° 0 mm 2 m/s 751 mmHg 36%
06:00 +13°C° 0 mm 2 m/s 751 mmHg 32%
07:00 +15°C° 0 mm 2 m/s 751 mmHg 28%
08:00 +18°C° 0 mm 2 m/s 751 mmHg 24%
09:00 +19°C° 0 mm 2 m/s 751 mmHg 21%
10:00 +21°C° 0 mm 2 m/s 751 mmHg 19%
11:00 +24°C° 0 mm 2 m/s 751 mmHg 16%
12:00 +24°C° 0 mm 2 m/s 751 mmHg 15%
13:00 +25°C° 0 mm 2 m/s 751 mmHg 14%
14:00 +26°C° 0 mm 2 m/s 750 mmHg 13%
15:00 +25°C° 0 mm 2 m/s 750 mmHg 14%
16:00 +23°C° 0 mm 2 m/s 750 mmHg 16%
17:00 +21°C° 0 mm 2 m/s 750 mmHg 18%
18:00 +19°C° 0 mm 2 m/s 750 mmHg 19%
19:00 +18°C° 0 mm 2 m/s 750 mmHg 20%
20:00 +16°C° 0 mm 2 m/s 750 mmHg 21%
21:00 +16°C° 0 mm 2 m/s 750 mmHg 22%
22:00 +15°C° 0 mm 2 m/s 750 mmHg 23%
23:00 +14°C° 0 mm 2 m/s 749 mmHg 24%

23 Septembre, Mercredi

Heure Température Précipitation Vent Pression Humidité
00:00 +14°C° 0 mm 2 m/s 749 mmHg 26%
01:00 +13°C° 0 mm 2 m/s 749 mmHg 27%
02:00 +13°C° 0 mm 2 m/s 749 mmHg 28%
03:00 +13°C° 0 mm 2 m/s 749 mmHg 29%
04:00 +12°C° 0 mm 2 m/s 749 mmHg 29%
05:00 +12°C° 0 mm 2 m/s 749 mmHg 30%
06:00 +14°C° 0 mm 3 m/s 749 mmHg 28%
07:00 +17°C° 0 mm 3 m/s 749 mmHg 25%
08:00 +20°C° 0 mm 3 m/s 749 mmHg 22%
09:00 +22°C° 0 mm 3 m/s 749 mmHg 20%
10:00 +24°C° 0 mm 3 m/s 749 mmHg 17%
11:00 +26°C° 0 mm 4 m/s 749 mmHg 15%
12:00 +27°C° 0 mm 4 m/s 748 mmHg 14%
13:00 +28°C° 0 mm 3 m/s 748 mmHg 13%
14:00 +28°C° 0 mm 3 m/s 747 mmHg 11%
15:00 +27°C° 0 mm 3 m/s 747 mmHg 13%
16:00 +25°C° 0 mm 2 m/s 747 mmHg 15%
17:00 +24°C° 0 mm 2 m/s 747 mmHg 16%
18:00 +21°C° 0 mm 2 m/s 747 mmHg 18%
19:00 +19°C° 0 mm 2 m/s 747 mmHg 20%
20:00 +18°C° 0 mm 3 m/s 747 mmHg 21%
21:00 +17°C° 0 mm 3 m/s 747 mmHg 22%
22:00 +17°C° 0 mm 3 m/s 747 mmHg 23%
23:00 +16°C° 0 mm 3 m/s 746 mmHg 24%

24 Septembre, Jeudi

Heure Température Précipitation Vent Pression Humidité
00:00 +16°C° 0 mm 3 m/s 746 mmHg 27%
01:00 +14°C° 0 mm 3 m/s 746 mmHg 30%
02:00 +14°C° 0 mm 3 m/s 746 mmHg 34%
03:00 +13°C° 0 mm 3 m/s 746 mmHg 34%
04:00 +13°C° 0 mm 3 m/s 746 mmHg 35%
05:00 +13°C° 0 mm 3 m/s 746 mmHg 36%
06:00 +16°C° 0 mm 3 m/s 746 mmHg 34%
07:00 +18°C° 0 mm 4 m/s 747 mmHg 32%
08:00 +20°C° 0 mm 4 m/s 747 mmHg 30%
09:00 +22°C° 0 mm 4 m/s 746 mmHg 27%
10:00 +25°C° 0 mm 5 m/s 746 mmHg 23%
11:00 +27°C° 0 mm 5 m/s 746 mmHg 20%
12:00 +28°C° 0 mm 5 m/s 746 mmHg 19%
13:00 +28°C° 0 mm 5 m/s 746 mmHg 19%
14:00 +29°C° 0 mm 5 m/s 746 mmHg 18%
15:00 +28°C° 0 mm 4 m/s 745 mmHg 22%
16:00 +26°C° 0 mm 3 m/s 745 mmHg 25%
17:00 +25°C° 0 mm 3 m/s 745 mmHg 29%
18:00 +22°C° 0 mm 3 m/s 745 mmHg 31%
19:00 +21°C° 0 mm 3 m/s 745 mmHg 33%
20:00 +19°C° 0 mm 3 m/s 745 mmHg 35%
21:00 +19°C° 0 mm 3 m/s 745 mmHg 36%
22:00 +18°C° 0 mm 3 m/s 745 mmHg 37%
23:00 +17°C° 0 mm 3 m/s 744 mmHg 37%

25 Septembre, Vendredi

Heure Température Précipitation Vent Pression Humidité
00:00 +17°C° 0 mm 3 m/s 744 mmHg 38%
01:00 +17°C° 0 mm 4 m/s 744 mmHg 39%
02:00 +15°C° 0 mm 4 m/s 744 mmHg 41%
03:00 +15°C° 0 mm 4 m/s 744 mmHg 42%
04:00 +15°C° 0 mm 4 m/s 744 mmHg 43%
05:00 +15°C° 0 mm 4 m/s 744 mmHg 44%
06:00 +16°C° 0 mm 5 m/s 744 mmHg 42%
07:00 +19°C° 0 mm 5 m/s 744 mmHg 39%
08:00 +21°C° 0 mm 6 m/s 744 mmHg 37%
09:00 +22°C° 0 mm 6 m/s 743 mmHg 34%
10:00 +24°C° 0 mm 6 m/s 743 mmHg 32%
11:00 +27°C° 0 mm 7 m/s 743 mmHg 29%
12:00 +27°C° 0 mm 6 m/s 743 mmHg 29%
13:00 +28°C° 0 mm 6 m/s 742 mmHg 30%
14:00 +28°C° 0 mm 6 m/s 742 mmHg 30%
15:00 +27°C° 0 mm 5 m/s 742 mmHg 33%
16:00 +26°C° 0 mm 4 m/s 741 mmHg 35%
17:00 +25°C° 0 mm 3 m/s 741 mmHg 38%
18:00 +24°C° 0 mm 3 m/s 741 mmHg 38%
19:00 +22°C° 0 mm 3 m/s 741 mmHg 38%
20:00 +21°C° 0 mm 4 m/s 741 mmHg 39%
21:00 +21°C° 0 mm 4 m/s 740 mmHg 37%
22:00 +21°C° 0 mm 5 m/s 740 mmHg 34%
23:00 +21°C° 0 mm 5 m/s 740 mmHg 32%
Voir plus